Home > Weather > Altstätten > Past weeks

Flag for Switzerland Past Weather in Altstätten, St. Gallen, Switzerland — Yesterday and Last 2 Weeks

Now
63 °F

Clear.


Feels Like: 63 °F
Forecast: 61 / 76 °F
Wind: 1 mph from North

Location: Saint Gallen-Altenrhein

Current Time: Jul 24, 2016 at 5:02:33 AM

Latest Report: Jul 24, 2016 at 4:20 AM


Visibility: 10 mi

Pressure: 30.12 "Hg

Humidity: 94%

Dew Point: 61 °F

Location of AltstättenLocation

Past Weather in Altstätten — Graph

°F

Altstätten Temperature Yesterday

Maximum temperature yesterday: 73 °F (at 2:20 PM)
Minimum temperature yesterday: 64 °F (at 3:50 AM)
Average temperature yesterday: 69 °F

High & Low Weather Summary for the Past Weeks

 TemperatureHumidityPressure
High88 °F (Jul 20, 5:20 PM)100% (Jul 12, 3:50 AM)30.36 "Hg (Jul 12, 3:50 AM)
Low48 °F (Jul 16, 2:50 AM)25% (Jul 20, 4:20 PM)29.92 "Hg (Jul 10, 5:50 PM)
Average68 °F74%30.10 "Hg
* Reported Jul 9 3:20 AM — Jul 24 3:50 AM, Altstätten, Weather by CustomWeather, © 2016

Note: Actual official high and low records may vary slightly from our data, if they occured in-between our weather recording intervals... More about our weather records

Advertising

Altstätten Weather History for the Previous 24 Hours

Scroll right to see more
 ConditionsComfort  
Time TempWeatherWind HumidityBarometerVisibility
3:50 AM
Sun, Jul 24
63 °FMild.2 mph94%30.12 "HgN/A
3:20 AM64 °FClear.3 mph94%30.12 "HgN/A
2:50 AM66 °FPassing clouds.5 mph88%30.12 "HgN/A
2:20 AM64 °FClear.5 mph88%30.12 "Hg10 mi
1:50 AM64 °FClear.2 mph94%30.12 "Hg10 mi
1:20 AM64 °FClear.2 mph94%30.12 "Hg10 mi
12:50 AM64 °FClear.5 mph94%30.12 "HgN/A
12:20 AM64 °FMild.5 mph94%30.12 "HgN/A
11:50 PM
Sat, Jul 23
66 °FClear.2 mph88%30.12 "HgN/A
11:20 PM68 °FPassing clouds.2 mph83%30.12 "HgN/A
10:50 PM68 °FPassing clouds.5 mph88%30.12 "HgN/A
10:20 PM68 °FPassing clouds.2 mph83%30.09 "HgN/A
9:50 PM68 °FLight rain. More clouds than sun.2 mph83%30.09 "HgN/A
9:20 PM68 °FRain. Broken clouds.5 mph83%30.07 "HgN/A
8:50 PM70 °FBroken clouds.3 mph78%30.07 "HgN/A
8:20 PM70 °FBroken clouds.6 mph78%30.07 "HgN/A
7:50 PM72 °FLight rain. Partly sunny.6 mph78%30.07 "HgN/A
7:20 PM70 °FLight rain. Partly sunny.3 mph88%30.07 "HgN/A
6:50 PM72 °FPartly sunny.5 mph78%30.07 "HgN/A
6:20 PM72 °FPartly sunny.2 mph73%30.07 "HgN/A
5:50 PM73 °FPartly sunny.2 mph69%30.07 "HgN/A
5:20 PM73 °FPartly sunny.3 mph65%30.07 "HgN/A
4:50 PM73 °FPassing clouds.3 mph69%30.07 "HgN/A
4:20 PM73 °FPassing clouds.3 mph65%30.07 "HgN/A
3:50 PM73 °FPassing clouds.3 mph69%30.07 "HgN/A
3:20 PM73 °FPassing clouds.5 mph65%30.07 "HgN/A
2:50 PM73 °FPassing clouds.5 mph69%30.07 "HgN/A
2:20 PM73 °FPassing clouds.2 mph74%30.07 "HgN/A
1:50 PM72 °FPassing clouds.2 mph78%30.07 "HgN/A
1:20 PM70 °FPassing clouds.3 mph78%30.07 "HgN/A
12:50 PM72 °FScattered clouds.2 mph73%30.07 "HgN/A
12:20 PM72 °FScattered clouds.3 mph73%30.07 "HgN/A
11:50 AM70 °FScattered clouds.3 mph83%30.07 "HgN/A
11:20 AM70 °FScattered clouds.5 mph83%30.07 "HgN/A
10:50 AM68 °FScattered clouds.5 mph83%30.07 "HgN/A
10:20 AM70 °FScattered clouds.6 mph78%30.07 "HgN/A
9:50 AM70 °FScattered clouds.7 mph83%30.07 "HgN/A
9:20 AM70 °FScattered clouds.5 mph78%30.07 "HgN/A
8:50 AM70 °FScattered clouds.5 mph83%30.07 "HgN/A
8:20 AM70 °FScattered clouds.3 mph88%30.07 "HgN/A
7:50 AM66 °FPartly sunny.3 mph94%30.07 "HgN/A
7:20 AM66 °FPartly sunny.2 mph94%30.07 "HgN/A
6:50 AM66 °FPartly sunny.1 mph94%30.04 "HgN/A
6:20 AM66 °FOvercast.2 mph94%30.04 "HgN/A
5:50 AM64 °FOvercast.1 mph100%30.04 "HgN/A
5:20 AM64 °FFog.3 mph94%30.04 "Hg3 mi
Weather by CustomWeather, © 2016

See weather overviewHow to use our weather pages